Location: Rainwater Observatory
(33.2833°N, 89.3833°W)
Time: 23:31:06
(UTC-05:00)

Daily predictions for brighter satellites

Satellite Brightness Start Highest point End
(mag) Time Altitude Azimuth Time Altitude Azimuth Time Altitude Azimuth
Okean 1 Rocket 4.0 19:50:04 10° SSW 19:54:22 53° W 19:58:39 10° N
OAO 2 Rocket 3.6 19:53:10 10° SW 19:57:59 49° SSE 20:02:55 10° E
FREGAT/IRIS 3.6 19:57:38 10° S 20:00:42 52° W 20:03:46 10° NNW
FengYun 1-2 T 4.4 19:56:24 10° SSE 20:01:55 59° ENE 20:07:26 10° N
METEOR-M 4.2 19:58:10 10° SSE 20:03:31 85° ENE 20:08:53 10° N
CZ-2D R/B 4.2 20:00:21 10° SE 20:03:42 29° ENE 20:07:04 10° NNE
Cosmos 968 Rocket 3.5 19:59:39 10° N 20:04:46 64° ENE 20:09:48 10° SSE
NOSS 2-1 (D) 3.6 20:02:29 10° SW 20:06:18 70° WNW 20:10:25 10° NNE
NOSS 2-1 (C) 3.6 20:03:29 10° SW 20:07:19 71° WNW 20:11:27 10° NNE
GOES 2 Rocket 3.9 20:04:25 10° WSW 20:08:14 35° S 20:12:13 10° SE
Hubble Space Telescope 1.5 20:04:45 10° WSW 20:08:41 41° S 20:12:19 12° ESE
Cosmos 1821 Rocket 3.9 20:05:00 10° S 20:11:02 65° E 20:17:04 10° NNE
Cosmos 1633 3.0 20:10:30 10° SSW 20:14:07 66° W 20:17:45 10° N
Cosmos 1536 3.1 20:10:19 10° SSW 20:14:17 71° W 20:18:17 10° N
BREEZE-M DEB (TANK) 3.6 20:02:13 10° NW 20:14:19 72° SW 20:17:51 10° SE
Meteor 2-16 Rocket 4.5 20:13:01 10° S 20:18:58 61° E 20:24:57 10° NNE
Cosmos 1346 Rocket 3.8 20:15:37 10° NNE 20:19:02 28° ENE 20:21:51 13° SE
NOSS 2-1 (E) 4.4 20:19:34 10° SW 20:23:19 50° WNW 20:27:27 10° NNE
Cosmos 2227 Rocket 3.2 20:24:17 10° N 20:29:11 29° ENE 20:32:24 18° ESE
Meteor 1-5 Rocket 4.0 20:25:18 10° S 20:30:35 78° E 20:35:59 10° N
ALOS 2.2 20:26:25 10° SSE 20:31:05 78° ENE 20:35:45 10° N
FENGYUN 3A 3.6 20:26:26 10° SSE 20:31:46 75° ENE 20:37:07 10° N
Cosmos 1656 4.2 20:32:57 10° SSE 20:37:59 34° ESE 20:42:59 10° NE
Cosmos 2082 4.4 20:36:45 10° N 20:41:52 35° ENE 20:44:32 23° ESE
Cosmos 1777 Rocket 3.9 20:36:43 10° NNW 20:41:59 83° ENE 20:46:53 12° SSE
Cosmos 2297 Rocket 3.2 20:40:12 10° N 20:45:02 28° ENE 20:47:09 22° E
Cosmos 2123 Rocket 3.9 20:40:48 10° N 20:46:57 70° E 20:53:05 10° SSE
Cosmos 2208 Rocket 4.3 20:43:23 10° SSW 20:48:38 74° WNW 20:54:00 10° NNE
H-2A R/B 3.7 20:49:23 17° ENE 20:49:23 17° ENE 20:51:48 10° NNE
SPOT 5 4.4 20:52:32 20° ENE 20:52:59 20° ENE 20:56:31 10° NNE
Cosmos 1892 Rocket 4.2 20:50:56 10° NNW 20:55:20 58° W 20:59:43 10° S
Okean 2 3.8 20:52:56 10° NNW 20:57:04 63° W 21:01:09 10° S
Cosmos 1455 Rocket 3.6 20:52:59 10° SSW 20:57:13 57° W 21:01:30 10° N
Cosmos 1626 Rocket 3.9 20:53:09 10° N 20:57:21 44° E 20:58:23 37° ESE
deb Chang Zheng 4 4.4 20:53:27 10° NE 20:57:05 31° E 20:57:05 31° E
Cosmos 1975 2.8 20:55:16 18° S 20:58:12 63° E 21:02:16 10° NNE
Meteor 2-15 Rocket 4.5 20:57:35 10° N 21:03:40 82° W 21:09:43 10° S
Cosmos 1602 Rocket 3.6 21:00:57 10° N 21:05:20 56° E 21:06:23 44° SE
NOSS 3-4 (A) 3.8 20:59:29 10° NNW 21:06:38 76° ENE 21:10:47 29° SE
NOSS 3-4 (C) 3.8 20:59:36 10° NNW 21:06:45 76° ENE 21:10:52 29° SE
Resurs 01 Rocket 4.5 21:05:28 10° SW 21:08:04 15° W 21:10:41 10° WNW
Cosmos 1153 Rocket 4.4 21:03:10 10° S 21:09:23 77° E 21:15:32 10° N
Envisat 3.2 21:11:14 42° ESE 21:12:22 50° ENE 21:17:16 10° N
Lacrosse 5 rocket 2.8 21:10:49 10° N 21:13:22 21° NE 21:13:22 21° NE
Cosmos 1461 3.0 21:09:47 10° NNW 21:13:43 50° ENE 21:13:43 50° ENE
CZ-4 DEB 2.9 21:14:51 68° NNW 21:14:51 68° NNW 21:17:40 10° NNW
Tiangong 1 3.7 21:13:58 10° NW 21:15:46 14° N 21:16:48 13° NNE
Meteor 1-12 Rocket 4.4 21:11:21 10° SSW 21:17:01 74° W 21:22:49 10° N
USA 186 3.8 21:15:38 15° SSW 21:17:35 25° W 21:20:13 10° NW
Cosmos 1697 Rocket 2.6 21:14:56 10° S 21:20:29 62° ESE 21:26:04 10° NNE
Cosmos 1802 Rocket 4.3 21:20:59 42° ESE 21:22:07 46° E 21:28:10 10° NNE
OTV 4 2.2 21:21:53 10° WNW 21:23:53 31° NNW 21:23:53 31° NNW
DELTA 2 R/B (1) 4.2 21:22:34 10° WNW 21:27:57 48° N 21:29:48 35° ENE
Cosmos 1447 Rocket 4.4 21:21:37 10° N 21:27:58 85° E 21:30:55 34° S
Cosmos 1939 Rocket 2.8 21:28:30 87° ENE 21:28:30 87° ENE 21:32:39 10° N
Delta 2 Rocket 3.6 21:28:52 10° WNW 21:34:21 90° SSW 21:34:44 77° ESE
ASTEX 1 4.3 21:29:49 10° NNE 21:33:04 34° NE 21:33:04 34° NE
Cosmos 220 Rocket 4.2 21:32:03 10° NNW 21:35:36 60° N 21:35:36 60° N
Iridium 4 Rocket 3.8 21:32:40 10° N 21:37:40 59° W 21:39:24 36° SSW
Cosmos 1980 Rocket 3.0 21:44:07 37° NE 21:44:07 37° NE 21:47:41 10° NNE
OAO 2 Rocket 3.3 21:37:38 10° W 21:42:43 80° N 21:42:57 77° NNE
Cosmos 2016 Rocket 4.0 21:43:28 56° E 21:43:28 56° E 21:49:11 10° NNE
ARGOS 4.2 21:49:32 32° NE 21:49:32 32° NE 21:53:09 10° N
ERS-1 Rocket 3.7 21:47:32 38° SW 21:48:57 49° W 21:53:49 10° NNW
Hubble Space Telescope 3.0 21:46:10 10° WSW 21:47:42 18° SW 21:47:42 18° SW
Cosmos 1898 Rocket 3.6 21:50:11 10° NNW 21:54:53 68° N 21:54:53 68° N
Cosmos 2173 Rocket 4.0 21:53:55 43° SSW 21:56:09 79° W 22:02:32 10° N
Cosmos 2061 Rocket 4.2 22:00:39 42° SSW 22:02:49 70° W 22:09:07 10° N
Cosmos 2100 Rocket 4.4 22:02:00 31° SSW 22:05:00 60° W 22:11:11 10° N
MetOp-B 4.4 22:10:11 64° NNW 22:10:11 64° NNW 22:14:43 10° NNW
Cosmos 2227 Rocket 3.5 22:08:13 10° NW 22:13:08 31° WSW 22:14:15 29° SW
CZ-3 Stage 3 4.2 21:45:08 10° WNW 22:20:56 53° SSW 22:21:57 51° S
H-2A R/B 4.2 22:26:32 22° WNW 22:26:32 22° WNW 22:28:32 10° NW
Milstar 3 Cent rocket 3.6 22:07:36 10° W 22:25:17 66° SSW 22:26:27 63° SSE
Cosmos 2297 Rocket 3.5 22:24:02 10° NW 22:28:59 33° WSW 22:28:59 33° WSW
USA 215 4.0 22:29:23 42° NNE 22:29:23 42° NNE 22:35:14 10° NNW
SPOT 5 4.3 22:31:46 36° WNW 22:31:46 36° WNW 22:35:26 10° NNW
Lacrosse 5 3.5 22:28:08 10° NNW 22:30:48 29° N 22:30:48 29° N
H-2A R/B 4.1 22:50:52 21° N 22:50:52 21° N 22:52:31 10° N
